Year,Month,Day,Hour,Minute,Value (Times are PST for temperature in C)
2010,03,17,00,00,6.70
2010,03,17,00,01,6.60
2010,03,17,00,02,6.70
2010,03,17,00,03,6.70
2010,03,17,00,04,6.70
2010,03,17,00,05,6.70
2010,03,17,00,06,6.70
2010,03,17,00,07,6.70
2010,03,17,00,08,6.70
2010,03,17,00,09,6.70
2010,03,17,00,10,6.70
2010,03,17,00,11,6.70
2010,03,17,00,12,6.70
2010,03,17,00,13,6.70
2010,03,17,00,14,6.70
2010,03,17,00,15,6.70
2010,03,17,00,16,6.70
2010,03,17,00,17,6.70
2010,03,17,00,18,6.70
2010,03,17,00,19,6.70
2010,03,17,00,20,6.70
2010,03,17,00,21,6.70
2010,03,17,00,22,6.60
2010,03,17,00,23,6.60
2010,03,17,00,24,6.60
2010,03,17,00,25,6.60
2010,03,17,00,26,6.60
2010,03,17,00,27,6.60
2010,03,17,00,28,6.60
2010,03,17,00,29,6.50
2010,03,17,00,30,6.40
2010,03,17,00,31,6.40
2010,03,17,00,32,6.40
2010,03,17,00,33,6.40
2010,03,17,00,34,6.40
2010,03,17,00,35,6.40
2010,03,17,00,36,6.40
2010,03,17,00,37,6.40
2010,03,17,00,38,6.40
2010,03,17,00,39,6.40
2010,03,17,00,40,6.40
2010,03,17,00,41,6.30
2010,03,17,00,42,6.30
2010,03,17,00,43,6.30
2010,03,17,00,44,6.30
2010,03,17,00,45,6.20
2010,03,17,00,46,6.20
2010,03,17,00,47,6.20
2010,03,17,00,48,6.20
2010,03,17,00,49,6.20
2010,03,17,00,50,6.20
2010,03,17,00,51,6.20
2010,03,17,00,52,6.20
2010,03,17,00,53,6.20
2010,03,17,00,54,6.20
2010,03,17,00,55,6.20
2010,03,17,00,56,6.20
2010,03,17,00,57,6.20
2010,03,17,00,58,6.20
2010,03,17,00,59,6.20
2010,03,17,01,00,6.20
2010,03,17,01,01,6.20
2010,03,17,01,02,6.20
2010,03,17,01,03,6.20
2010,03,17,01,04,6.20
2010,03,17,01,05,6.10
2010,03,17,01,06,6.10
2010,03,17,01,07,6.00
2010,03,17,01,08,6.00
2010,03,17,01,09,6.00
2010,03,17,01,10,6.00
2010,03,17,01,11,5.90
2010,03,17,01,12,5.90
2010,03,17,01,13,5.90
2010,03,17,01,14,5.80
2010,03,17,01,15,5.80
2010,03,17,01,16,5.80
2010,03,17,01,17,5.80
2010,03,17,01,18,5.80
2010,03,17,01,19,5.80
2010,03,17,01,20,5.80
2010,03,17,01,21,5.80
2010,03,17,01,22,5.90
2010,03,17,01,23,5.90
2010,03,17,01,24,5.90
2010,03,17,01,25,5.90
2010,03,17,01,26,5.90
2010,03,17,01,27,5.90
2010,03,17,01,28,5.90
2010,03,17,01,29,5.90
2010,03,17,01,30,5.80
2010,03,17,01,31,5.80
2010,03,17,01,32,5.80
2010,03,17,01,33,5.80
2010,03,17,01,34,5.80
2010,03,17,01,35,5.80
2010,03,17,01,36,5.80
2010,03,17,01,37,5.80
2010,03,17,01,38,5.80
2010,03,17,01,39,5.70
2010,03,17,01,40,5.70
2010,03,17,01,41,5.70
2010,03,17,01,42,5.70
2010,03,17,01,43,5.70
2010,03,17,01,44,5.70
2010,03,17,01,45,5.70
2010,03,17,01,46,5.80
2010,03,17,01,47,5.90
2010,03,17,01,48,5.90
2010,03,17,01,49,6.00
2010,03,17,01,50,6.00
2010,03,17,01,51,6.10
2010,03,17,01,52,6.20
2010,03,17,01,53,6.20
2010,03,17,01,54,6.20
2010,03,17,01,55,6.20
2010,03,17,01,56,6.20
2010,03,17,01,57,6.20
2010,03,17,01,58,6.20
2010,03,17,01,59,6.20
2010,03,17,02,00,6.20
2010,03,17,02,01,6.20
2010,03,17,02,02,6.20
2010,03,17,02,03,6.20
2010,03,17,02,04,6.20
2010,03,17,02,05,6.20
2010,03,17,02,06,6.20
2010,03,17,02,07,6.20
2010,03,17,02,08,6.20
2010,03,17,02,09,6.20
2010,03,17,02,10,6.20
2010,03,17,02,11,6.20
2010,03,17,02,12,6.20
2010,03,17,02,13,6.20
2010,03,17,02,14,6.20
2010,03,17,02,15,6.20
2010,03,17,02,16,6.20
2010,03,17,02,17,6.20
2010,03,17,02,18,6.20
2010,03,17,02,19,6.20
2010,03,17,02,20,6.20
2010,03,17,02,21,6.20
2010,03,17,02,22,6.20
2010,03,17,02,23,6.20
2010,03,17,02,24,6.10
2010,03,17,02,25,6.10
2010,03,17,02,26,6.10
2010,03,17,02,27,6.10
2010,03,17,02,28,6.10
2010,03,17,02,29,6.10
2010,03,17,02,30,6.10
2010,03,17,02,31,6.10
2010,03,17,02,32,6.10
2010,03,17,02,33,6.10
2010,03,17,02,34,6.10
2010,03,17,02,35,6.10
2010,03,17,02,36,6.10
2010,03,17,02,37,6.10
2010,03,17,02,38,6.10
2010,03,17,02,39,6.10
2010,03,17,02,40,6.10
2010,03,17,02,41,6.10
2010,03,17,02,42,6.10
2010,03,17,02,43,6.10
2010,03,17,02,44,6.10
2010,03,17,02,45,6.10
2010,03,17,02,46,6.10
2010,03,17,02,47,6.20
2010,03,17,02,48,6.20
2010,03,17,02,49,6.20
2010,03,17,02,50,6.20
2010,03,17,02,51,6.20
2010,03,17,02,52,6.20
2010,03,17,02,53,6.20
2010,03,17,02,54,6.20
2010,03,17,02,55,6.20
2010,03,17,02,56,6.20
2010,03,17,02,57,6.30
2010,03,17,02,58,6.40
2010,03,17,02,59,6.40
2010,03,17,03,00,6.40
2010,03,17,03,01,6.40
2010,03,17,03,02,6.50
2010,03,17,03,03,6.60
2010,03,17,03,04,6.60
2010,03,17,03,05,6.60
2010,03,17,03,06,6.60
2010,03,17,03,07,6.60
2010,03,17,03,08,6.60
2010,03,17,03,09,6.60
2010,03,17,03,10,6.60
2010,03,17,03,11,6.60
2010,03,17,03,12,6.60
2010,03,17,03,13,6.60
2010,03,17,03,14,6.50
2010,03,17,03,15,6.40
2010,03,17,03,16,6.40
2010,03,17,03,17,6.40
2010,03,17,03,18,6.40
2010,03,17,03,19,6.40
2010,03,17,03,20,6.40
2010,03,17,03,21,6.40
2010,03,17,03,22,6.40
2010,03,17,03,23,6.40
2010,03,17,03,24,6.40
2010,03,17,03,25,6.30
2010,03,17,03,26,6.30
2010,03,17,03,27,6.30
2010,03,17,03,28,6.20
2010,03,17,03,29,6.20
2010,03,17,03,30,6.20
2010,03,17,03,31,6.20
2010,03,17,03,32,6.20
2010,03,17,03,33,6.10
2010,03,17,03,34,6.10
2010,03,17,03,35,6.10
2010,03,17,03,36,6.00
2010,03,17,03,37,6.00
2010,03,17,03,38,5.90
2010,03,17,03,39,5.90
2010,03,17,03,40,5.90
2010,03,17,03,41,5.80
2010,03,17,03,42,5.80
2010,03,17,03,43,5.70
2010,03,17,03,44,5.70
2010,03,17,03,45,5.70
2010,03,17,03,46,5.70
2010,03,17,03,47,5.70
2010,03,17,03,48,5.70
2010,03,17,03,49,5.60
2010,03,17,03,50,5.60
2010,03,17,03,51,5.60
2010,03,17,03,52,5.60
2010,03,17,03,53,5.50
2010,03,17,03,54,5.50
2010,03,17,03,55,5.50
2010,03,17,03,56,5.50
2010,03,17,03,57,5.40
2010,03,17,03,58,5.40
2010,03,17,03,59,5.40
2010,03,17,04,00,5.30
2010,03,17,04,01,5.30
2010,03,17,04,02,5.30
2010,03,17,04,03,5.30
2010,03,17,04,04,5.30
2010,03,17,04,05,5.30
2010,03,17,04,06,5.30
2010,03,17,04,07,5.30
2010,03,17,04,08,5.20
2010,03,17,04,09,5.20
2010,03,17,04,10,5.10
2010,03,17,04,11,5.10
2010,03,17,04,12,5.10
2010,03,17,04,13,5.10
2010,03,17,04,14,5.10
2010,03,17,04,15,5.00
2010,03,17,04,16,4.90
2010,03,17,04,17,4.90
2010,03,17,04,18,4.90
2010,03,17,04,19,4.90
2010,03,17,04,20,4.90
2010,03,17,04,21,4.80
2010,03,17,04,22,4.80
2010,03,17,04,23,4.80
2010,03,17,04,24,4.80
2010,03,17,04,25,4.80
2010,03,17,04,26,4.90
2010,03,17,04,27,4.90
2010,03,17,04,28,4.90
2010,03,17,04,29,4.90
2010,03,17,04,30,5.00
2010,03,17,04,31,5.10
2010,03,17,04,32,5.10
2010,03,17,04,33,5.10
2010,03,17,04,34,5.10
2010,03,17,04,35,5.10
2010,03,17,04,36,5.00
2010,03,17,04,37,4.90
2010,03,17,04,38,4.90
2010,03,17,04,39,4.90
2010,03,17,04,40,4.90
2010,03,17,04,41,4.80
2010,03,17,04,42,4.80
2010,03,17,04,43,4.70
2010,03,17,04,44,4.70
2010,03,17,04,45,4.60
2010,03,17,04,46,4.60
2010,03,17,04,47,4.60
2010,03,17,04,48,4.60
2010,03,17,04,49,4.50
2010,03,17,04,50,4.50
2010,03,17,04,51,4.40
2010,03,17,04,52,4.40
2010,03,17,04,53,4.30
2010,03,17,04,54,4.20
2010,03,17,04,55,4.10
2010,03,17,04,56,4.00
2010,03,17,04,57,4.00
2010,03,17,04,58,4.00
2010,03,17,04,59,4.00
2010,03,17,05,00,4.00
2010,03,17,05,01,3.90
2010,03,17,05,02,3.90
2010,03,17,05,03,3.90
2010,03,17,05,04,3.90
2010,03,17,05,05,3.80
2010,03,17,05,06,3.80
2010,03,17,05,07,3.80
2010,03,17,05,08,3.80
2010,03,17,05,09,3.80
2010,03,17,05,10,3.80
2010,03,17,05,11,3.80
2010,03,17,05,12,3.80
2010,03,17,05,13,3.80
2010,03,17,05,14,3.80
2010,03,17,05,15,3.80
2010,03,17,05,16,3.80
2010,03,17,05,17,3.80
2010,03,17,05,18,3.80
2010,03,17,05,19,3.80
2010,03,17,05,20,3.80
2010,03,17,05,21,3.80
2010,03,17,05,22,3.80
2010,03,17,05,23,3.80
2010,03,17,05,24,3.70
2010,03,17,05,25,3.70
2010,03,17,05,26,3.70
2010,03,17,05,27,3.70
2010,03,17,05,28,3.70
2010,03,17,05,29,3.70
2010,03,17,05,30,3.60
2010,03,17,05,31,3.60
2010,03,17,05,32,3.50
2010,03,17,05,33,3.50
2010,03,17,05,34,3.50
2010,03,17,05,35,3.40
2010,03,17,05,36,3.40
2010,03,17,05,37,3.40
2010,03,17,05,38,3.40
2010,03,17,05,39,3.40
2010,03,17,05,40,3.40
2010,03,17,05,41,3.40
2010,03,17,05,42,3.40
2010,03,17,05,43,3.40
2010,03,17,05,44,3.40
2010,03,17,05,45,3.30
2010,03,17,05,46,3.30
2010,03,17,05,47,3.30
2010,03,17,05,48,3.30
2010,03,17,05,49,3.30
2010,03,17,05,50,3.30
2010,03,17,05,51,3.30
2010,03,17,05,52,3.30
2010,03,17,05,53,3.20
2010,03,17,05,54,3.20
2010,03,17,05,55,3.20
2010,03,17,05,56,3.20
2010,03,17,05,57,3.20
2010,03,17,05,58,3.10
2010,03,17,05,59,3.10
2010,03,17,06,00,3.10
2010,03,17,06,01,3.10
2010,03,17,06,02,3.10
2010,03,17,06,03,3.10
2010,03,17,06,04,3.10
2010,03,17,06,05,3.00
2010,03,17,06,06,2.90
2010,03,17,06,07,2.90
2010,03,17,06,08,2.90
2010,03,17,06,09,2.90
2010,03,17,06,10,2.90
2010,03,17,06,11,2.90
2010,03,17,06,12,2.90
2010,03,17,06,13,2.90
2010,03,17,06,14,2.90
2010,03,17,06,15,2.90
2010,03,17,06,16,2.80
2010,03,17,06,17,2.80
2010,03,17,06,18,2.80
2010,03,17,06,19,2.70
2010,03,17,06,20,2.70
2010,03,17,06,21,2.70
2010,03,17,06,22,2.70
2010,03,17,06,23,2.60
2010,03,17,06,24,2.60
2010,03,17,06,25,2.50
2010,03,17,06,26,2.50
2010,03,17,06,27,2.40
2010,03,17,06,28,2.40
2010,03,17,06,29,2.30
2010,03,17,06,30,2.30
2010,03,17,06,31,2.30
2010,03,17,06,32,2.20
2010,03,17,06,33,2.20
2010,03,17,06,34,2.20
2010,03,17,06,35,2.20
2010,03,17,06,36,2.20
2010,03,17,06,37,2.20
2010,03,17,06,38,2.20
2010,03,17,06,39,2.20
2010,03,17,06,40,2.30
2010,03,17,06,41,2.30
2010,03,17,06,42,2.30
2010,03,17,06,43,2.30
2010,03,17,06,44,2.20
2010,03,17,06,45,2.20
2010,03,17,06,46,2.20
2010,03,17,06,47,2.20
2010,03,17,06,48,2.20
2010,03,17,06,49,2.20
2010,03,17,06,50,2.20
2010,03,17,06,51,2.20
2010,03,17,06,52,2.20
2010,03,17,06,53,2.20
2010,03,17,06,54,2.20
2010,03,17,06,55,2.20
2010,03,17,06,56,2.20
2010,03,17,06,57,2.20
2010,03,17,06,58,2.20
2010,03,17,06,59,2.20
2010,03,17,07,00,2.20
2010,03,17,07,01,2.20
2010,03,17,07,02,2.20
2010,03,17,07,03,2.20
2010,03,17,07,04,2.20
2010,03,17,07,05,2.20
2010,03,17,07,06,2.20
2010,03,17,07,07,2.30
2010,03,17,07,08,2.40
2010,03,17,07,09,2.50
2010,03,17,07,10,2.50
2010,03,17,07,11,2.60
2010,03,17,07,12,2.70
2010,03,17,07,13,2.70
2010,03,17,07,14,2.80
2010,03,17,07,15,3.00
2010,03,17,07,16,3.20
2010,03,17,07,17,3.30
2010,03,17,07,18,3.50
2010,03,17,07,19,3.60
2010,03,17,07,20,3.60
2010,03,17,07,21,3.70
2010,03,17,07,22,3.80
2010,03,17,07,23,3.80
2010,03,17,07,24,3.80
2010,03,17,07,25,3.90
2010,03,17,07,26,3.90
2010,03,17,07,27,3.90
2010,03,17,07,28,4.00
2010,03,17,07,29,4.00
2010,03,17,07,30,4.00
2010,03,17,07,31,4.00
2010,03,17,07,32,4.00
2010,03,17,07,33,4.00
2010,03,17,07,34,3.90
2010,03,17,07,35,3.90
2010,03,17,07,36,3.90
2010,03,17,07,37,3.90
2010,03,17,07,38,3.90
2010,03,17,07,39,3.90
2010,03,17,07,40,3.90
2010,03,17,07,41,3.90
2010,03,17,07,42,3.90
2010,03,17,07,43,3.90
2010,03,17,07,44,3.90
2010,03,17,07,45,3.90
2010,03,17,07,46,4.00
2010,03,17,07,47,4.00
2010,03,17,07,48,4.00
2010,03,17,07,49,4.10
2010,03,17,07,50,4.10
2010,03,17,07,51,4.10
2010,03,17,07,52,4.00
2010,03,17,07,53,4.00
2010,03,17,07,54,4.00
2010,03,17,07,55,4.00
2010,03,17,07,56,3.90
2010,03,17,07,57,3.90
2010,03,17,07,58,3.80
2010,03,17,07,59,3.80
2010,03,17,08,00,3.70
2010,03,17,08,01,3.70
2010,03,17,08,02,3.70
2010,03,17,08,03,3.80
2010,03,17,08,04,3.80
2010,03,17,08,05,3.80
2010,03,17,08,06,3.80
2010,03,17,08,07,3.90
2010,03,17,08,08,3.90
2010,03,17,08,09,3.90
2010,03,17,08,10,3.90
2010,03,17,08,11,3.80
2010,03,17,08,12,3.80
2010,03,17,08,13,3.80
2010,03,17,08,14,3.80
2010,03,17,08,15,3.80
2010,03,17,08,16,3.80
2010,03,17,08,17,3.70
2010,03,17,08,18,3.70
2010,03,17,08,19,3.70
2010,03,17,08,20,3.60
2010,03,17,08,21,3.60
2010,03,17,08,22,3.60
2010,03,17,08,23,3.60
2010,03,17,08,24,3.50
2010,03,17,08,25,3.50
2010,03,17,08,26,3.50
2010,03,17,08,27,3.50
2010,03,17,08,28,3.50
2010,03,17,08,29,3.50
2010,03,17,08,30,3.50
2010,03,17,08,31,3.60
2010,03,17,08,32,3.60
2010,03,17,08,33,3.60
2010,03,17,08,34,3.70
2010,03,17,08,35,3.80
2010,03,17,08,36,3.80
2010,03,17,08,37,3.80
2010,03,17,08,38,3.90
2010,03,17,08,39,3.90
2010,03,17,08,40,4.00
2010,03,17,08,41,4.00
2010,03,17,08,42,4.10
2010,03,17,08,43,4.10
2010,03,17,08,44,4.20
2010,03,17,08,45,4.20
2010,03,17,08,46,4.30
2010,03,17,08,47,4.40
2010,03,17,08,48,4.40
2010,03,17,08,49,4.50
2010,03,17,08,50,4.50
2010,03,17,08,51,4.60
2010,03,17,08,52,4.60
2010,03,17,08,53,4.70
2010,03,17,08,54,4.80
2010,03,17,08,55,4.90
2010,03,17,08,56,5.00
2010,03,17,08,57,5.10
2010,03,17,08,58,5.10
2010,03,17,08,59,5.20
2010,03,17,09,00,5.20
2010,03,17,09,01,5.30
2010,03,17,09,02,5.40
2010,03,17,09,03,5.50
2010,03,17,09,04,5.60
2010,03,17,09,05,5.70
2010,03,17,09,06,5.80
2010,03,17,09,07,5.90
2010,03,17,09,08,5.90
2010,03,17,09,09,6.00
2010,03,17,09,10,6.10
2010,03,17,09,11,6.20
2010,03,17,09,12,6.30
2010,03,17,09,13,6.30
2010,03,17,09,14,6.30
2010,03,17,09,15,6.30
2010,03,17,09,16,6.30
2010,03,17,09,17,6.30
2010,03,17,09,18,6.30
2010,03,17,09,19,6.30
2010,03,17,09,20,6.30
2010,03,17,09,21,6.30
2010,03,17,09,22,6.40
2010,03,17,09,23,6.40
2010,03,17,09,24,6.40
2010,03,17,09,25,6.40
2010,03,17,09,26,6.40
2010,03,17,09,27,6.40
2010,03,17,09,28,6.40
2010,03,17,09,29,6.50
2010,03,17,09,30,6.60
2010,03,17,09,31,6.60
2010,03,17,09,32,6.60
2010,03,17,09,33,6.60
2010,03,17,09,34,6.70
2010,03,17,09,35,6.80
2010,03,17,09,36,6.80
2010,03,17,09,37,6.80
2010,03,17,09,38,6.80
2010,03,17,09,39,6.90
2010,03,17,09,40,6.90
2010,03,17,09,41,7.00
2010,03,17,09,42,7.00
2010,03,17,09,43,7.10
2010,03,17,09,44,7.10
2010,03,17,09,45,7.10
2010,03,17,09,46,7.10
2010,03,17,09,47,7.20
2010,03,17,09,48,7.30
2010,03,17,09,49,7.30
2010,03,17,09,50,7.30
2010,03,17,09,51,7.50
2010,03,17,09,52,7.60
2010,03,17,09,53,7.70
2010,03,17,09,54,7.80
2010,03,17,09,55,7.90
2010,03,17,09,56,8.00
2010,03,17,09,57,8.00
2010,03,17,09,58,8.10
2010,03,17,09,59,8.20
2010,03,17,10,00,8.20
2010,03,17,10,01,8.30
2010,03,17,10,02,8.40
2010,03,17,10,03,8.40
2010,03,17,10,04,8.40
2010,03,17,10,05,8.30
2010,03,17,10,06,8.20
2010,03,17,10,07,8.20
2010,03,17,10,08,8.10
2010,03,17,10,09,8.10
2010,03,17,10,10,8.00
2010,03,17,10,11,8.00
2010,03,17,10,12,8.00
2010,03,17,10,13,8.00
2010,03,17,10,14,8.10
2010,03,17,10,15,8.10
2010,03,17,10,16,8.10
2010,03,17,10,17,8.10
2010,03,17,10,18,8.10
2010,03,17,10,19,8.10
2010,03,17,10,20,8.10
2010,03,17,10,21,8.20
2010,03,17,10,22,8.20
2010,03,17,10,23,8.10
2010,03,17,10,24,8.10
2010,03,17,10,25,8.10
2010,03,17,10,26,8.10
2010,03,17,10,27,8.10
2010,03,17,10,28,8.10
2010,03,17,10,29,8.10
2010,03,17,10,30,8.10
2010,03,17,10,31,8.20
2010,03,17,10,32,8.20
2010,03,17,10,33,8.20
2010,03,17,10,34,8.20
2010,03,17,10,35,8.30
2010,03,17,10,36,8.40
2010,03,17,10,37,8.40
2010,03,17,10,38,8.50
2010,03,17,10,39,8.50
2010,03,17,10,40,8.60
2010,03,17,10,41,8.70
2010,03,17,10,42,8.80
2010,03,17,10,43,8.90
2010,03,17,10,44,8.90
2010,03,17,10,45,8.90
2010,03,17,10,46,8.90
2010,03,17,10,47,9.00
2010,03,17,10,48,9.00
2010,03,17,10,49,9.00
2010,03,17,10,50,9.10
2010,03,17,10,51,9.10
2010,03,17,10,52,9.20
2010,03,17,10,53,9.20
2010,03,17,10,54,9.20
2010,03,17,10,55,9.20
2010,03,17,10,56,9.20
2010,03,17,10,57,9.20
2010,03,17,10,58,9.20
2010,03,17,10,59,9.10
2010,03,17,11,00,9.00
2010,03,17,11,01,9.00
2010,03,17,11,02,9.00
2010,03,17,11,03,9.10
2010,03,17,11,04,9.20
2010,03,17,11,05,9.30
2010,03,17,11,06,9.40
2010,03,17,11,07,9.50
2010,03,17,11,08,9.40
2010,03,17,11,09,9.40
2010,03,17,11,10,9.40
2010,03,17,11,11,9.30
2010,03,17,11,12,9.30
2010,03,17,11,13,9.30
2010,03,17,11,14,9.40
2010,03,17,11,15,9.50
2010,03,17,11,16,9.50
2010,03,17,11,17,9.50
2010,03,17,11,18,9.60
2010,03,17,11,19,9.60
2010,03,17,11,20,9.60
2010,03,17,11,21,9.70
2010,03,17,11,22,9.70
2010,03,17,11,23,9.70
2010,03,17,11,24,9.80
2010,03,17,11,25,9.90
2010,03,17,11,26,10.00
2010,03,17,11,27,10.10
2010,03,17,11,28,10.30
2010,03,17,11,29,10.40
2010,03,17,11,30,10.50
2010,03,17,11,31,10.60
2010,03,17,11,32,10.70
2010,03,17,11,33,10.80
2010,03,17,11,34,10.80
2010,03,17,11,35,10.90
2010,03,17,11,36,10.90
2010,03,17,11,37,10.80
2010,03,17,11,38,10.80
2010,03,17,11,39,10.80
2010,03,17,11,40,10.80
2010,03,17,11,41,10.80
2010,03,17,11,42,10.70
2010,03,17,11,43,10.60
2010,03,17,11,44,10.60
2010,03,17,11,45,10.60
2010,03,17,11,46,10.60
2010,03,17,11,47,10.70
2010,03,17,11,48,10.70
2010,03,17,11,49,10.80
2010,03,17,11,50,10.90
2010,03,17,11,51,11.00
2010,03,17,11,52,11.10
2010,03,17,11,53,11.10
2010,03,17,11,54,10.90
2010,03,17,11,55,10.90
2010,03,17,11,56,10.80
2010,03,17,11,57,10.60
2010,03,17,11,58,10.40
2010,03,17,11,59,10.30
2010,03,17,12,00,10.20
2010,03,17,12,01,10.20
2010,03,17,12,02,10.10
2010,03,17,12,03,10.10
2010,03,17,12,04,10.10
2010,03,17,12,05,10.20
2010,03,17,12,06,10.30
2010,03,17,12,07,10.40
2010,03,17,12,08,10.50
2010,03,17,12,09,10.50
2010,03,17,12,10,10.40
2010,03,17,12,11,10.30
2010,03,17,12,12,10.30
2010,03,17,12,13,10.20
2010,03,17,12,14,10.30
2010,03,17,12,15,10.30
2010,03,17,12,16,10.40
2010,03,17,12,17,10.40
2010,03,17,12,18,10.40
2010,03,17,12,19,10.30
2010,03,17,12,20,10.30
2010,03,17,12,21,10.40
2010,03,17,12,22,10.40
2010,03,17,12,23,10.50
2010,03,17,12,24,10.70
2010,03,17,12,25,10.70
2010,03,17,12,26,10.60
2010,03,17,12,27,10.60
2010,03,17,12,28,10.60
2010,03,17,12,29,10.60
2010,03,17,12,30,10.60
2010,03,17,12,31,10.60
2010,03,17,12,32,10.60
2010,03,17,12,33,10.80
2010,03,17,12,34,11.00
2010,03,17,12,35,11.10
2010,03,17,12,36,11.20
2010,03,17,12,37,11.40
2010,03,17,12,38,11.50
2010,03,17,12,39,11.60
2010,03,17,12,40,11.50
2010,03,17,12,41,11.40
2010,03,17,12,42,11.20
2010,03,17,12,43,11.10
2010,03,17,12,44,11.10
2010,03,17,12,45,11.10
2010,03,17,12,46,11.10
2010,03,17,12,47,11.20
2010,03,17,12,48,11.30
2010,03,17,12,49,11.50
2010,03,17,12,50,11.70
2010,03,17,12,51,11.80
2010,03,17,12,52,11.90
2010,03,17,12,53,12.00
2010,03,17,12,54,12.00
2010,03,17,12,55,12.10
2010,03,17,12,56,12.00
2010,03,17,12,57,12.00
2010,03,17,12,58,12.00
2010,03,17,12,59,11.90
2010,03,17,13,00,11.90
2010,03,17,13,01,11.90
2010,03,17,13,02,11.90
2010,03,17,13,03,11.90
2010,03,17,13,04,11.90
2010,03,17,13,05,11.90
2010,03,17,13,06,11.90
2010,03,17,13,07,11.90
2010,03,17,13,08,11.80
2010,03,17,13,09,11.80
2010,03,17,13,10,11.80
2010,03,17,13,11,11.80
2010,03,17,13,12,11.80
2010,03,17,13,13,11.70
2010,03,17,13,14,11.50
2010,03,17,13,15,11.40
2010,03,17,13,16,11.20
2010,03,17,13,17,11.10
2010,03,17,13,18,10.90
2010,03,17,13,19,10.90
2010,03,17,13,20,10.90
2010,03,17,13,21,10.90
2010,03,17,13,22,10.90
2010,03,17,13,23,11.00
2010,03,17,13,24,11.10
2010,03,17,13,25,11.00
2010,03,17,13,26,11.00
2010,03,17,13,27,11.10
2010,03,17,13,28,11.10
2010,03,17,13,29,11.10
2010,03,17,13,30,11.10
2010,03,17,13,31,11.20
2010,03,17,13,32,11.20
2010,03,17,13,33,11.20
2010,03,17,13,34,11.30
2010,03,17,13,35,11.30
2010,03,17,13,36,11.40
2010,03,17,13,37,11.40
2010,03,17,13,38,11.50
2010,03,17,13,39,11.60
2010,03,17,13,40,11.60
2010,03,17,13,41,11.70
2010,03,17,13,42,11.70
2010,03,17,13,43,11.80
2010,03,17,13,44,11.80
2010,03,17,13,45,11.80
2010,03,17,13,46,11.80
2010,03,17,13,47,11.80
2010,03,17,13,48,11.80
2010,03,17,13,49,11.70
2010,03,17,13,50,11.70
2010,03,17,13,51,11.60
2010,03,17,13,52,11.60
2010,03,17,13,53,11.50
2010,03,17,13,54,11.40
2010,03,17,13,55,11.40
2010,03,17,13,56,11.40
2010,03,17,13,57,11.40
2010,03,17,13,58,11.40
2010,03,17,13,59,11.40
2010,03,17,14,00,11.40
2010,03,17,14,01,11.40
2010,03,17,14,02,11.40
2010,03,17,14,03,11.50
2010,03,17,14,04,11.60
2010,03,17,14,05,11.70
2010,03,17,14,06,11.80
2010,03,17,14,07,11.90
2010,03,17,14,08,12.10
2010,03,17,14,09,12.20
2010,03,17,14,10,12.40
2010,03,17,14,11,12.50
2010,03,17,14,12,12.60
2010,03,17,14,13,12.70
2010,03,17,14,14,12.80
2010,03,17,14,15,12.90
2010,03,17,14,16,13.00
2010,03,17,14,17,12.90
2010,03,17,14,18,12.90
2010,03,17,14,19,12.70
2010,03,17,14,20,12.50
2010,03,17,14,21,12.30
2010,03,17,14,22,12.10
2010,03,17,14,23,11.90
2010,03,17,14,24,11.80
2010,03,17,14,25,11.70
2010,03,17,14,26,11.60
2010,03,17,14,27,11.60
2010,03,17,14,28,11.60
2010,03,17,14,29,11.70
2010,03,17,14,30,11.70
2010,03,17,14,31,11.80
2010,03,17,14,32,11.80
2010,03,17,14,33,11.70
2010,03,17,14,34,11.80
2010,03,17,14,35,11.80
2010,03,17,14,36,11.80
2010,03,17,14,37,11.80
2010,03,17,14,38,11.80
2010,03,17,14,39,11.80
2010,03,17,14,40,11.90
2010,03,17,14,41,11.90
2010,03,17,14,42,11.90
2010,03,17,14,43,11.80
2010,03,17,14,44,11.90
2010,03,17,14,45,12.00
2010,03,17,14,46,12.10
2010,03,17,14,47,12.20
2010,03,17,14,48,12.20
2010,03,17,14,49,12.30
2010,03,17,14,50,12.40
2010,03,17,14,51,12.60
2010,03,17,14,52,12.70
2010,03,17,14,53,12.80
2010,03,17,14,54,12.90
2010,03,17,14,55,13.00
2010,03,17,14,56,13.10
2010,03,17,14,57,13.10
2010,03,17,14,58,13.20
2010,03,17,14,59,13.20
2010,03,17,15,00,13.30
2010,03,17,15,01,13.30
2010,03,17,15,02,13.40
2010,03,17,15,03,13.50
2010,03,17,15,04,13.50
2010,03,17,15,05,13.60
2010,03,17,15,06,13.60
2010,03,17,15,07,13.60
2010,03,17,15,08,13.60
2010,03,17,15,09,13.60
2010,03,17,15,10,13.60
2010,03,17,15,11,13.70
2010,03,17,15,12,13.60
2010,03,17,15,13,13.60
2010,03,17,15,14,13.60
2010,03,17,15,15,13.60
2010,03,17,15,16,13.60
2010,03,17,15,17,13.70
2010,03,17,15,18,13.70
2010,03,17,15,19,13.80
2010,03,17,15,20,13.80
2010,03,17,15,21,13.90
2010,03,17,15,22,14.00
2010,03,17,15,23,14.10
2010,03,17,15,24,14.10
2010,03,17,15,25,14.10
2010,03,17,15,26,14.20
2010,03,17,15,27,14.20
2010,03,17,15,28,14.20
2010,03,17,15,29,14.20
2010,03,17,15,30,14.10
2010,03,17,15,31,14.10
2010,03,17,15,32,14.00
2010,03,17,15,33,14.00
2010,03,17,15,34,13.90
2010,03,17,15,35,13.90
2010,03,17,15,36,13.90
2010,03,17,15,37,13.90
2010,03,17,15,38,13.80
2010,03,17,15,39,13.80
2010,03,17,15,40,13.70
2010,03,17,15,41,13.70
2010,03,17,15,42,13.70
2010,03,17,15,43,13.60
2010,03,17,15,44,13.50
2010,03,17,15,45,13.40
2010,03,17,15,46,13.40
2010,03,17,15,47,13.30
2010,03,17,15,48,13.40
2010,03,17,15,49,13.40
2010,03,17,15,50,13.40
2010,03,17,15,51,13.50
2010,03,17,15,52,13.50
2010,03,17,15,53,13.60
2010,03,17,15,54,13.70
2010,03,17,15,55,13.70
2010,03,17,15,56,13.70
2010,03,17,15,57,13.60
2010,03,17,15,58,13.60
2010,03,17,15,59,13.50
2010,03,17,16,00,13.50
2010,03,17,16,01,13.40
2010,03,17,16,02,13.30
2010,03,17,16,03,13.30
2010,03,17,16,04,13.30
2010,03,17,16,05,13.30
2010,03,17,16,06,13.30
2010,03,17,16,07,13.30
2010,03,17,16,08,13.20
2010,03,17,16,09,13.20
2010,03,17,16,10,13.10
2010,03,17,16,11,13.00
2010,03,17,16,12,12.90
2010,03,17,16,13,12.80
2010,03,17,16,14,12.70
2010,03,17,16,15,12.70
2010,03,17,16,16,12.70
2010,03,17,16,17,12.60
2010,03,17,16,18,12.50
2010,03,17,16,19,12.60
2010,03,17,16,20,12.60
2010,03,17,16,21,12.70
2010,03,17,16,22,12.80
2010,03,17,16,23,12.90
2010,03,17,16,24,13.00
2010,03,17,16,25,13.00
2010,03,17,16,26,12.90
2010,03,17,16,27,12.90
2010,03,17,16,28,13.00
2010,03,17,16,29,13.00
2010,03,17,16,30,13.00
2010,03,17,16,31,12.90
2010,03,17,16,32,12.80
2010,03,17,16,33,12.70
2010,03,17,16,34,12.60
2010,03,17,16,35,12.50
2010,03,17,16,36,12.50
2010,03,17,16,37,12.40
2010,03,17,16,38,12.40
2010,03,17,16,39,12.30
2010,03,17,16,40,12.30
2010,03,17,16,41,12.20
2010,03,17,16,42,12.10
2010,03,17,16,43,12.00
2010,03,17,16,44,11.90
2010,03,17,16,45,11.80
2010,03,17,16,46,11.80
2010,03,17,16,47,11.80
2010,03,17,16,48,11.80
2010,03,17,16,49,11.70
2010,03,17,16,50,11.60
2010,03,17,16,51,11.60
2010,03,17,16,52,11.60
2010,03,17,16,53,11.60
2010,03,17,16,54,11.50
2010,03,17,16,55,11.40
2010,03,17,16,56,11.40
2010,03,17,16,57,11.40
2010,03,17,16,58,11.40
2010,03,17,16,59,11.40
2010,03,17,17,00,11.40
2010,03,17,17,01,11.30
2010,03,17,17,02,11.30
2010,03,17,17,03,11.30
2010,03,17,17,04,11.30
2010,03,17,17,05,11.20
2010,03,17,17,06,11.20
2010,03,17,17,07,11.10
2010,03,17,17,08,11.10
2010,03,17,17,09,11.10
2010,03,17,17,10,11.10
2010,03,17,17,11,11.10
2010,03,17,17,12,11.10
2010,03,17,17,13,11.10
2010,03,17,17,14,11.10
2010,03,17,17,15,11.10
2010,03,17,17,16,11.10
2010,03,17,17,17,11.10
2010,03,17,17,18,11.10
2010,03,17,17,19,11.10
2010,03,17,17,20,11.10
2010,03,17,17,21,11.10
2010,03,17,17,22,11.10
2010,03,17,17,23,11.10
2010,03,17,17,24,11.10
2010,03,17,17,25,11.10
2010,03,17,17,26,11.00
2010,03,17,17,27,10.90
2010,03,17,17,28,10.90
2010,03,17,17,29,10.90
2010,03,17,17,30,10.90
2010,03,17,17,31,10.90
2010,03,17,17,32,10.90
2010,03,17,17,33,10.90
2010,03,17,17,34,10.90
2010,03,17,17,35,10.90
2010,03,17,17,36,10.90
2010,03,17,17,37,10.80
2010,03,17,17,38,10.80
2010,03,17,17,39,10.80
2010,03,17,17,40,10.70
2010,03,17,17,41,10.70
2010,03,17,17,42,10.70
2010,03,17,17,43,10.60
2010,03,17,17,44,10.60
2010,03,17,17,45,10.60
2010,03,17,17,46,10.60
2010,03,17,17,47,10.60
2010,03,17,17,48,10.60
2010,03,17,17,49,10.60